N176RA KDEN-KGJT

Flight info

Callsign N176RA
Flight time 1h 13m
Altitude VFR
Route /FF
Aircraft BE36/L-DOV/C

Departure

Time 2026-04-15 22:37
Airport Denver International Airport (KDEN)

Arrival

Time 2026-04-15 23:51
Airport Grand Junction Regional Airport (KGJT)
Time Latitude Longitude Altitude Speed Heading
2026-04-15 22:33 39.87105 -104.67726 5358 ft 16 kts 271°
2026-04-15 22:33 39.87108 -104.67870 5358 ft 16 kts 272°
2026-04-15 22:34 39.87109 -104.68019 5359 ft 17 kts 271°
2026-04-15 22:34 39.87110 -104.68178 5359 ft 18 kts 269°
2026-04-15 22:34 39.87112 -104.68350 5357 ft 20 kts 266°
2026-04-15 22:34 39.87089 -104.68499 5354 ft 16 kts 205°
2026-04-15 22:35 39.86970 -104.68504 5353 ft 19 kts 181°
2026-04-15 22:35 39.86867 -104.68499 5355 ft 5 kts 174°
2026-04-15 22:35 39.86866 -104.68499 5355 ft 0 kts 173°
2026-04-15 22:35 39.86864 -104.68499 5355 ft 2 kts 173°
2026-04-15 22:36 39.86844 -104.68500 5356 ft 8 kts 190°
2026-04-15 22:36 39.86823 -104.68582 5357 ft 14 kts 271°
2026-04-15 22:36 39.86858 -104.68715 5356 ft 19 kts 350°
2026-04-15 22:36 39.87273 -104.68718 5353 ft 99 kts
2026-04-15 22:37 39.88090 -104.68692 5571 ft 124 kts 358°
2026-04-15 22:37 39.88895 -104.68809 6124 ft 110 kts 326°
2026-04-15 22:37 39.89389 -104.69553 6491 ft 113 kts 287°
2026-04-15 22:37 39.89475 -104.70686 6529 ft 140 kts 263°
2026-04-15 22:38 39.88848 -104.71602 6858 ft 145 kts 208°
2026-04-15 22:38 39.87853 -104.72143 6897 ft 162 kts 206°
2026-04-15 22:38 39.86791 -104.72754 6926 ft 169 kts 208°
2026-04-15 22:38 39.85733 -104.73422 6931 ft 168 kts 209°
2026-04-15 22:39 39.84778 -104.74269 6929 ft 164 kts 234°
2026-04-15 22:39 39.84261 -104.75579 6879 ft 166 kts 248°
2026-04-15 22:39 39.83713 -104.76895 6879 ft 165 kts 241°
2026-04-15 22:39 39.83152 -104.78184 6890 ft 163 kts 244°
2026-04-15 22:40 39.82636 -104.79498 6892 ft 162 kts 247°
2026-04-15 22:40 39.82064 -104.80772 6897 ft 163 kts 246°
2026-04-15 22:40 39.81891 -104.82187 6899 ft 160 kts 273°
2026-04-15 22:41 39.81642 -104.85116 6718 ft 171 kts 259°
2026-04-15 22:41 39.81389 -104.86654 6533 ft 176 kts 258°
2026-04-15 22:41 39.81125 -104.88191 6474 ft 172 kts 259°
2026-04-15 22:41 39.80865 -104.89710 6474 ft 176 kts 259°
2026-04-15 22:42 39.80596 -104.91275 6469 ft 177 kts 258°
2026-04-15 22:42 39.80324 -104.92842 6468 ft 180 kts 261°
2026-04-15 22:42 39.80050 -104.94431 6465 ft 180 kts 260°
2026-04-15 22:42 39.79777 -104.96032 6462 ft 182 kts 261°
2026-04-15 22:43 39.79499 -104.97643 6461 ft 182 kts 259°
2026-04-15 22:43 39.79219 -104.99256 6455 ft 183 kts 262°
2026-04-15 22:43 39.78943 -105.00861 6504 ft 183 kts 260°
2026-04-15 22:43 39.78662 -105.02474 6505 ft 182 kts 261°
2026-04-15 22:44 39.78386 -105.04074 6509 ft 182 kts 261°
2026-04-15 22:44 39.78111 -105.05666 6512 ft 180 kts 263°
2026-04-15 22:44 39.77840 -105.07241 6508 ft 175 kts 260°
2026-04-15 22:44 39.77574 -105.08754 6507 ft 169 kts 260°
2026-04-15 22:45 39.77324 -105.10229 6502 ft 165 kts 261°
2026-04-15 22:45 39.77073 -105.11672 6498 ft 163 kts 259°
2026-04-15 22:45 39.76820 -105.13102 6496 ft 161 kts 259°
2026-04-15 22:45 39.76576 -105.14499 6503 ft 161 kts 262°
2026-04-15 22:46 39.76333 -105.15919 6498 ft 160 kts 260°
2026-04-15 22:46 39.76087 -105.17319 6488 ft 159 kts 258°
2026-04-15 22:46 39.75854 -105.18664 6715 ft 144 kts 258°
2026-04-15 22:46 39.75632 -105.19870 6930 ft 130 kts 263°
2026-04-15 22:47 39.75441 -105.20993 7153 ft 125 kts 261°
2026-04-15 22:47 39.75252 -105.22075 7378 ft 121 kts 262°
2026-04-15 22:47 39.75069 -105.23130 7608 ft 120 kts 263°
2026-04-15 22:47 39.74889 -105.24162 7848 ft 118 kts 261°
2026-04-15 22:48 39.74699 -105.25239 8081 ft 125 kts 263°
2026-04-15 22:48 39.74510 -105.26347 8331 ft 128 kts 262°
2026-04-15 22:48 39.74306 -105.27504 8568 ft 132 kts 259°
2026-04-15 22:48 39.74102 -105.28652 8841 ft 130 kts 263°
2026-04-15 22:49 39.73901 -105.29803 9097 ft 131 kts 262°
2026-04-15 22:49 39.73714 -105.30964 9359 ft 133 kts 265°
2026-04-15 22:49 39.74234 -105.31410 8550 ft 155 kts 20°
2026-04-15 22:49 39.74439 -105.31267 7930 ft 198 kts 21°
2026-04-15 22:50 39.75594 -105.30717 8308 ft 184 kts
2026-04-15 22:50 39.76859 -105.30871 8256 ft 182 kts 328°
2026-04-15 22:50 39.77692 -105.31958 8574 ft 162 kts 304°
2026-04-15 22:50 39.78198 -105.33208 8876 ft 150 kts 289°
2026-04-15 22:51 39.78358 -105.34400 9510 ft 132 kts 275°
2026-04-15 22:51 39.78330 -105.35663 9643 ft 141 kts 270°
2026-04-15 22:51 39.78239 -105.36917 9883 ft 141 kts 266°
2026-04-15 22:51 39.78007 -105.38194 9997 ft 150 kts 256°
2026-04-15 22:52 39.77634 -105.39514 10000 ft 167 kts 252°
2026-04-15 22:52 39.77155 -105.41054 9574 ft 192 kts 252°
2026-04-15 22:52 39.76666 -105.42638 9681 ft 189 kts 251°
2026-04-15 22:52 39.76226 -105.43897 10727 ft 127 kts 246°
2026-04-15 22:53 39.75645 -105.44999 10593 ft 161 kts 235°
2026-04-15 22:53 39.74903 -105.46151 10667 ft 172 kts 236°
2026-04-15 22:53 39.74187 -105.47398 10789 ft 171 kts 250°
2026-04-15 22:53 39.74190 -105.48880 10899 ft 167 kts 292°
2026-04-15 22:54 39.74653 -105.50220 11048 ft 158 kts 290°
2026-04-15 22:54 39.74961 -105.51563 11179 ft 153 kts 281°
2026-04-15 22:54 39.75051 -105.52915 11291 ft 148 kts 268°
2026-04-15 22:54 39.74881 -105.54229 11413 ft 148 kts 260°
2026-04-15 22:55 39.74645 -105.55525 11523 ft 145 kts 259°
2026-04-15 22:55 39.74409 -105.56777 11639 ft 144 kts 258°
2026-04-15 22:55 39.74162 -105.58030 11802 ft 141 kts 258°
2026-04-15 22:55 39.73923 -105.59242 11994 ft 136 kts 258°
2026-04-15 22:56 39.73693 -105.60419 12185 ft 133 kts 258°
2026-04-15 22:56 39.73467 -105.61565 12387 ft 131 kts 257°
2026-04-15 22:56 39.73245 -105.62704 12579 ft 129 kts 258°
2026-04-15 22:56 39.73098 -105.63452 12707 ft 128 kts 257°
2026-04-15 22:57 39.72876 -105.64573 12936 ft 128 kts 259°
2026-04-15 22:57 39.72660 -105.65710 13137 ft 130 kts 260°
2026-04-15 22:57 39.72371 -105.67137 13432 ft 121 kts 260°
2026-04-15 22:57 39.72227 -105.67884 13579 ft 130 kts 260°
2026-04-15 22:58 39.72006 -105.69049 13777 ft 136 kts 258°
2026-04-15 22:58 39.71769 -105.70231 13959 ft 133 kts 259°
2026-04-15 22:58 39.71547 -105.71350 14148 ft 123 kts 260°
2026-04-15 22:58 39.71337 -105.72399 14328 ft 117 kts 260°
2026-04-15 22:59 39.71138 -105.73408 14502 ft 116 kts 261°
2026-04-15 22:59 39.70934 -105.74462 14526 ft 130 kts 261°
2026-04-15 22:59 39.70701 -105.75654 14526 ft 142 kts 258°
2026-04-15 22:59 39.70448 -105.76934 14527 ft 150 kts 258°
2026-04-15 23:00 39.70185 -105.78272 14531 ft 154 kts 259°
2026-04-15 23:00 39.69915 -105.79629 14545 ft 156 kts 259°
2026-04-15 23:00 39.69643 -105.81008 14547 ft 159 kts 258°
2026-04-15 23:00 39.69363 -105.82413 14545 ft 163 kts 258°
2026-04-15 23:01 39.69080 -105.83834 14543 ft 163 kts 258°
2026-04-15 23:01 39.68798 -105.85257 14546 ft 161 kts 258°
2026-04-15 23:01 39.68518 -105.86661 14539 ft 165 kts 259°
2026-04-15 23:01 39.68229 -105.88132 14539 ft 170 kts 258°
2026-04-15 23:02 39.67932 -105.89612 14540 ft 168 kts 258°
2026-04-15 23:02 39.67643 -105.91067 14526 ft 163 kts 259°
2026-04-15 23:02 39.67365 -105.92466 14524 ft 159 kts 259°
2026-04-15 23:02 39.67085 -105.93877 14557 ft 165 kts 258°
2026-04-15 23:03 39.66791 -105.95338 14551 ft 169 kts 258°
2026-04-15 23:03 39.66497 -105.96823 14554 ft 171 kts 257°
2026-04-15 23:03 39.66196 -105.98334 14547 ft 173 kts 258°
2026-04-15 23:03 39.65896 -105.99829 14548 ft 169 kts 257°
2026-04-15 23:04 39.65602 -106.01290 14548 ft 166 kts 258°
2026-04-15 23:04 39.65314 -106.02744 14537 ft 166 kts 257°
2026-04-15 23:04 39.65024 -106.04187 14548 ft 164 kts 258°
2026-04-15 23:04 39.64736 -106.05624 14543 ft 165 kts 257°
2026-04-15 23:05 39.64449 -106.07056 14555 ft 166 kts 258°
2026-04-15 23:05 39.64159 -106.08511 14549 ft 166 kts 258°
2026-04-15 23:05 39.63866 -106.09958 14550 ft 165 kts 258°
2026-04-15 23:05 39.63579 -106.11396 14551 ft 165 kts 258°
2026-04-15 23:06 39.63288 -106.12839 14547 ft 165 kts 257°
2026-04-15 23:06 39.62997 -106.14282 14549 ft 166 kts 257°
2026-04-15 23:06 39.62705 -106.15735 14550 ft 165 kts 257°
2026-04-15 23:06 39.62419 -106.17161 14552 ft 161 kts 258°
2026-04-15 23:07 39.62135 -106.18577 14556 ft 165 kts 258°
2026-04-15 23:07 39.61847 -106.19996 14561 ft 164 kts 257°
2026-04-15 23:07 39.61553 -106.21444 14564 ft 167 kts 258°
2026-04-15 23:07 39.61263 -106.22893 14564 ft 165 kts 258°
2026-04-15 23:08 39.60968 -106.24353 14565 ft 169 kts 257°
2026-04-15 23:08 39.60669 -106.25821 14568 ft 168 kts 258°
2026-04-15 23:08 39.60370 -106.27294 14564 ft 170 kts 257°
2026-04-15 23:08 39.60074 -106.28763 14562 ft 167 kts 258°
2026-04-15 23:09 39.59779 -106.30222 14564 ft 168 kts 257°
2026-04-15 23:09 39.59480 -106.31685 14569 ft 167 kts 258°
2026-04-15 23:09 39.59183 -106.33144 14568 ft 168 kts 257°
2026-04-15 23:09 39.58887 -106.34609 14566 ft 168 kts 257°
2026-04-15 23:10 39.58593 -106.36060 14563 ft 169 kts 257°
2026-04-15 23:10 39.58298 -106.37517 14572 ft 164 kts 257°
2026-04-15 23:10 39.58004 -106.38947 14567 ft 165 kts 257°
2026-04-15 23:10 39.57712 -106.40388 14581 ft 167 kts 258°
2026-04-15 23:11 39.57414 -106.41848 14574 ft 168 kts 257°
2026-04-15 23:11 39.57116 -106.43318 14567 ft 168 kts 257°
2026-04-15 23:11 39.56817 -106.44777 14568 ft 167 kts 257°
2026-04-15 23:11 39.56525 -106.46209 14567 ft 166 kts 257°
2026-04-15 23:12 39.56229 -106.47650 14576 ft 166 kts 257°
2026-04-15 23:12 39.55935 -106.49104 14578 ft 167 kts 257°
2026-04-15 23:12 39.55639 -106.50539 14580 ft 164 kts 257°
2026-04-15 23:12 39.55343 -106.51976 14583 ft 167 kts 257°
2026-04-15 23:13 39.55042 -106.53450 14573 ft 171 kts 257°
2026-04-15 23:13 39.54744 -106.54901 14581 ft 168 kts 257°
2026-04-15 23:13 39.54439 -106.56382 14573 ft 172 kts 257°
2026-04-15 23:13 39.54131 -106.57895 14570 ft 174 kts 256°
2026-04-15 23:14 39.53822 -106.59398 14574 ft 171 kts 256°
2026-04-15 23:14 39.53512 -106.60895 14587 ft 172 kts 257°
2026-04-15 23:14 39.53203 -106.62394 14574 ft 170 kts 256°
2026-04-15 23:14 39.52899 -106.63872 14574 ft 170 kts 257°
2026-04-15 23:15 39.52595 -106.65363 14574 ft 170 kts 257°
2026-04-15 23:15 39.52289 -106.66833 14576 ft 168 kts 257°
2026-04-15 23:15 39.51985 -106.68295 14578 ft 169 kts 257°
2026-04-15 23:15 39.51680 -106.69775 14566 ft 170 kts 257°
2026-04-15 23:16 39.51382 -106.71218 14574 ft 167 kts 256°
2026-04-15 23:16 39.51080 -106.72690 14569 ft 170 kts 256°
2026-04-15 23:16 39.50774 -106.74179 14577 ft 172 kts 256°
2026-04-15 23:16 39.50459 -106.75685 14572 ft 173 kts 256°
2026-04-15 23:17 39.50149 -106.77174 14555 ft 171 kts 256°
2026-04-15 23:17 39.49840 -106.78661 14553 ft 170 kts 256°
2026-04-15 23:17 39.49537 -106.80130 14555 ft 169 kts 256°
2026-04-15 23:17 39.49232 -106.81596 14556 ft 168 kts 256°
2026-04-15 23:18 39.48929 -106.83058 14557 ft 169 kts 256°
2026-04-15 23:18 39.48621 -106.84533 14556 ft 169 kts 256°
2026-04-15 23:18 39.48315 -106.86003 14561 ft 169 kts 256°
2026-04-15 23:18 39.48014 -106.87453 14551 ft 170 kts 256°
2026-04-15 23:19 39.47705 -106.88937 14614 ft 171 kts 256°
2026-04-15 23:19 39.47395 -106.90416 14618 ft 170 kts 256°
2026-04-15 23:19 39.47089 -106.91885 14619 ft 168 kts 256°
2026-04-15 23:19 39.46785 -106.93341 14617 ft 167 kts 256°
2026-04-15 23:20 39.46480 -106.94800 14618 ft 168 kts 256°
2026-04-15 23:20 39.46175 -106.96262 14622 ft 168 kts 256°
2026-04-15 23:20 39.45867 -106.97732 14618 ft 170 kts 256°
2026-04-15 23:20 39.45555 -106.99224 14611 ft 173 kts 256°
2026-04-15 23:21 39.45245 -107.00697 14610 ft 171 kts 256°
2026-04-15 23:21 39.44934 -107.02183 14608 ft 171 kts 256°
2026-04-15 23:21 39.44621 -107.03674 14599 ft 172 kts 256°
2026-04-15 23:21 39.44306 -107.05175 14596 ft 173 kts 255°
2026-04-15 23:22 39.43989 -107.06678 14592 ft 174 kts 255°
2026-04-15 23:22 39.43671 -107.08192 14586 ft 175 kts 255°
2026-04-15 23:22 39.43352 -107.09711 14585 ft 174 kts 255°
2026-04-15 23:22 39.43034 -107.11215 14580 ft 173 kts 255°
2026-04-15 23:23 39.42717 -107.12725 14574 ft 174 kts 255°
2026-04-15 23:23 39.42398 -107.14236 14573 ft 174 kts 255°
2026-04-15 23:23 39.42083 -107.15732 14566 ft 174 kts 255°
2026-04-15 23:23 39.41762 -107.17248 14565 ft 175 kts 255°
2026-04-15 23:24 39.41442 -107.18761 14561 ft 174 kts 255°
2026-04-15 23:24 39.41123 -107.20268 14553 ft 173 kts 255°
2026-04-15 23:24 39.40806 -107.21771 14547 ft 173 kts 255°
2026-04-15 23:24 39.40488 -107.23267 14541 ft 172 kts 255°
2026-04-15 23:25 39.40172 -107.24756 14540 ft 171 kts 255°
2026-04-15 23:25 39.39858 -107.26236 14534 ft 170 kts 255°
2026-04-15 23:25 39.39545 -107.27715 14532 ft 170 kts 255°
2026-04-15 23:25 39.39234 -107.29181 14536 ft 169 kts 255°
2026-04-15 23:26 39.38921 -107.30646 14536 ft 169 kts 255°
2026-04-15 23:26 39.38608 -107.32121 14538 ft 171 kts 255°
2026-04-15 23:26 39.38293 -107.33600 14542 ft 171 kts 255°
2026-04-15 23:26 39.37977 -107.35087 14550 ft 172 kts 255°
2026-04-15 23:27 39.37663 -107.36562 14550 ft 173 kts 255°
2026-04-15 23:27 39.37342 -107.38060 14543 ft 173 kts 255°
2026-04-15 23:27 39.37023 -107.39560 14542 ft 173 kts 255°
2026-04-15 23:27 39.36704 -107.41054 14536 ft 171 kts 254°
2026-04-15 23:28 39.36388 -107.42537 14538 ft 171 kts 255°
2026-04-15 23:28 39.36069 -107.44016 14537 ft 171 kts 255°
2026-04-15 23:28 39.35751 -107.45506 14539 ft 173 kts 254°
2026-04-15 23:28 39.35429 -107.47011 14546 ft 174 kts 254°
2026-04-15 23:29 39.35108 -107.48509 14542 ft 172 kts 254°
2026-04-15 23:29 39.34790 -107.49991 14549 ft 171 kts 254°
2026-04-15 23:29 39.34473 -107.51474 14543 ft 171 kts 254°
2026-04-15 23:29 39.34155 -107.52950 14552 ft 171 kts 254°
2026-04-15 23:30 39.33836 -107.54436 14547 ft 171 kts 254°
2026-04-15 23:30 39.33514 -107.55928 14546 ft 173 kts 254°
2026-04-15 23:30 39.33198 -107.57406 14549 ft 172 kts 254°
2026-04-15 23:30 39.32874 -107.58903 14543 ft 173 kts 254°
2026-04-15 23:31 39.32553 -107.60393 14543 ft 173 kts 254°
2026-04-15 23:31 39.32231 -107.61887 14554 ft 172 kts 254°
2026-04-15 23:31 39.31910 -107.63376 14555 ft 172 kts 254°
2026-04-15 23:31 39.31589 -107.64865 14554 ft 173 kts 254°
2026-04-15 23:32 39.31266 -107.66357 14556 ft 172 kts 254°
2026-04-15 23:32 39.30945 -107.67844 14558 ft 172 kts 254°
2026-04-15 23:32 39.30624 -107.69328 14557 ft 172 kts 254°
2026-04-15 23:32 39.30300 -107.70821 14555 ft 172 kts 254°
2026-04-15 23:33 39.29977 -107.72309 14553 ft 172 kts 254°
2026-04-15 23:33 39.29654 -107.73801 14550 ft 172 kts 254°
2026-04-15 23:33 39.29331 -107.75290 14551 ft 172 kts 253°
2026-04-15 23:33 39.29007 -107.76787 14550 ft 173 kts 253°
2026-04-15 23:34 39.28686 -107.78261 14557 ft 172 kts 253°
2026-04-15 23:34 39.28362 -107.79755 14558 ft 173 kts 253°
2026-04-15 23:34 39.28035 -107.81255 14560 ft 173 kts 253°
2026-04-15 23:36 39.26086 -107.90191 14544 ft 175 kts 253°
2026-04-15 23:36 39.25748 -107.91738 14360 ft 183 kts 253°
2026-04-15 23:36 39.25399 -107.93337 14178 ft 187 kts 253°
2026-04-15 23:36 39.25041 -107.94969 13994 ft 190 kts 253°
2026-04-15 23:37 39.24679 -107.96620 13809 ft 192 kts 253°
2026-04-15 23:37 39.24315 -107.98282 13605 ft 193 kts 253°
2026-04-15 23:37 39.23948 -107.99954 13393 ft 193 kts 253°
2026-04-15 23:37 39.23580 -108.01625 13185 ft 193 kts 253°
2026-04-15 23:38 39.23213 -108.03293 12976 ft 193 kts 253°
2026-04-15 23:38 39.22849 -108.04955 12769 ft 192 kts 253°
2026-04-15 23:38 39.22485 -108.06610 12563 ft 191 kts 253°
2026-04-15 23:38 39.22122 -108.08259 12354 ft 191 kts 253°
2026-04-15 23:39 39.21764 -108.09883 12154 ft 190 kts 253°
2026-04-15 23:39 39.21402 -108.11522 11902 ft 192 kts 253°
2026-04-15 23:39 39.21032 -108.13197 11608 ft 195 kts 253°
2026-04-15 23:39 39.20658 -108.14889 11314 ft 197 kts 253°
2026-04-15 23:40 39.20283 -108.16589 11017 ft 198 kts 253°
2026-04-15 23:40 39.19904 -108.18297 10733 ft 197 kts 253°
2026-04-15 23:40 39.19528 -108.19997 10481 ft 195 kts 253°
2026-04-15 23:40 39.19169 -108.21623 10467 ft 183 kts 253°
2026-04-15 23:41 39.18817 -108.23199 10219 ft 187 kts 253°
2026-04-15 23:41 39.18458 -108.24824 9872 ft 194 kts 254°
2026-04-15 23:41 39.18083 -108.26508 9491 ft 197 kts 253°
2026-04-15 23:41 39.17702 -108.28216 9097 ft 199 kts 253°
2026-04-15 23:42 39.17324 -108.29933 8726 ft 198 kts 253°
2026-04-15 23:42 39.16844 -108.31552 8497 ft 189 kts 237°
2026-04-15 23:42 39.16021 -108.32808 8484 ft 178 kts 230°
2026-04-15 23:42 39.15194 -108.33959 8466 ft 172 kts 230°
2026-04-15 23:43 39.14393 -108.35063 8433 ft 173 kts 229°
2026-04-15 23:43 39.13562 -108.36244 8180 ft 182 kts 230°
2026-04-15 23:43 39.12696 -108.37458 7940 ft 186 kts 229°
2026-04-15 23:43 39.11811 -108.38684 7701 ft 186 kts 230°
2026-04-15 23:44 39.11229 -108.39497 7536 ft 187 kts 227°
2026-04-15 23:44 39.10056 -108.41143 7227 ft 188 kts 228°
2026-04-15 23:44 39.09180 -108.42394 6995 ft 188 kts 229°
2026-04-15 23:44 39.08308 -108.43648 6749 ft 187 kts 230°
2026-04-15 23:45 39.07445 -108.44886 6519 ft 183 kts 229°
2026-04-15 23:45 39.06611 -108.46033 6493 ft 169 kts 229°
2026-04-15 23:45 39.05834 -108.47111 6490 ft 161 kts 229°
2026-04-15 23:45 39.05335 -108.47817 6473 ft 160 kts 229°
2026-04-15 23:46 39.04574 -108.48903 6216 ft 165 kts 229°
2026-04-15 23:46 39.03927 -108.50106 5955 ft 165 kts 254°
2026-04-15 23:46 39.04093 -108.51529 5681 ft 164 kts 296°
2026-04-15 23:46 39.04637 -108.52768 5501 ft 152 kts 299°
2026-04-15 23:47 39.05132 -108.53888 5489 ft 136 kts 298°
2026-04-15 23:47 39.05580 -108.54901 5491 ft 124 kts 299°
2026-04-15 23:47 39.05986 -108.55819 5487 ft 113 kts 299°
2026-04-15 23:47 39.06364 -108.56663 5490 ft 105 kts 298°
2026-04-15 23:48 39.06751 -108.57445 5521 ft 101 kts 303°
2026-04-15 23:48 39.07239 -108.58083 5502 ft 97 kts 319°
2026-04-15 23:48 39.07918 -108.58271 5446 ft 105 kts 11°
2026-04-15 23:48 39.08481 -108.57677 5386 ft 115 kts 65°
2026-04-15 23:49 39.08861 -108.56822 5395 ft 110 kts 57°
2026-04-15 23:49 39.09314 -108.56003 5341 ft 111 kts 53°
2026-04-15 23:49 39.09749 -108.55215 5195 ft 103 kts 52°
2026-04-15 23:49 39.10154 -108.54526 5088 ft 93 kts 52°
2026-04-15 23:50 39.10513 -108.53879 5004 ft 87 kts 54°
2026-04-15 23:50 39.10853 -108.53253 4925 ft 82 kts 55°
2026-04-15 23:50 39.11176 -108.52656 4859 ft 71 kts 53°
2026-04-15 23:51 39.11582 -108.51983 4856 ft 15 kts 346°
2026-04-15 23:51 39.11611 -108.52010 4857 ft 0 kts 319°
2026-04-15 23:51 39.11629 -108.52023 4857 ft 7 kts 332°
2026-04-15 23:51 39.11685 -108.52031 4857 ft 8 kts 348°
2026-04-15 23:52 39.11737 -108.52047 4856 ft 8 kts 11°
2026-04-15 23:52 39.11788 -108.52083 4855 ft 9 kts 339°
2026-04-15 23:52 39.11844 -108.52059 4854 ft 9 kts 35°
2026-04-15 23:52 39.11908 -108.52026 4853 ft 11 kts 347°
2026-04-15 23:53 39.11964 -108.52098 4852 ft 12 kts 307°
2026-04-15 23:53 39.12012 -108.52186 4851 ft 12 kts 306°
2026-04-15 23:53 39.12061 -108.52236 4850 ft 8 kts 36°
2026-04-15 23:53 39.12090 -108.52211 4849 ft 0 kts 37°